• Join FlightAware (Why Join?)
  • Login
  • US Flag GB Flag 
10:37 EDT


 

Airport Tracker/Info


-or-


 

Live Flight TrackerFlight Track Log ✈ BJS542 ✈ 24-Aug-2013 ✈ KLAX - KSDL

Flight Track Log - Related Links

Times and Time Zones

All times are in EDT time to prevent confusion due to time zone crossing. See the BJS542 flight status page for this flight to view local times or setup timezone preferences in your user account.

Time Position Orientation Groundspeed Altitude Reporting Facility
EDT Latitude Longitude Course Direction KTS MPH feet Rate Location/Type
11:49 33.9239 -118.4611 232° Southwest 277 319 2,900  Level Los Angeles Center
11:50 33.8783 -118.5319 232° Southwest 270 311 5,100 2,640 Climbing Los Angeles Center
11:51 33.8164 -118.5536 196° South 274 315 8,400 3,720 Climbing Los Angeles Center
11:52 33.7203 -118.5250 166° South 304 350 12,800 3,600 Climbing Los Angeles Center
11:53 33.6694 -118.4306 123° Southeast 357 411 15,900 2,400 Climbing Los Angeles Center
11:54 33.6444 -118.3111 104° East 381 438 17,800 2,400 Climbing Los Angeles Center
11:55 33.6450 -118.1847 90° East 389 448 20,900 2,460 Climbing Los Angeles Center
11:56 33.6453 -118.0181 90° East 419 482 23,000 2,460 Climbing Los Angeles Center
11:57 33.6450 -117.8675 90° East 449 517 26,000 2,700 Climbing Los Angeles Center
11:58 33.6444 -117.7197 90° East 445 512 28,700 2,400 Climbing Los Angeles Center
11:59 33.6425 -117.5669 91° East 456 525 31,000 1,980 Climbing Los Angeles Center
12:00 33.6419 -117.4089 90° East 473 544 32,800 1,740 Climbing Los Angeles Center
12:01 33.6408 -117.2472 90° East 485 558 34,600 1,800 Climbing Los Angeles Center
12:02 33.6389 -117.0161 91° East 493 567 37,000 1,020 Climbing Los Angeles Center
12:03 33.6392 -116.8478 90° East 502 578 37,000  Level Los Angeles Center
12:04 33.6358 -116.6856 91° East 497 572 37,000  Level Los Angeles Center
12:05 33.6342 -116.5253 91° East 483 556 37,000 -60 Level Los Angeles Center
12:06 33.6308 -116.3647 91° East 481 554 36,900  Descending Los Angeles Center
12:07 33.6297 -116.2072 90° East 476 548 37,000  Climbing Los Angeles Center
12:08 33.6253 -116.0447 92° East 480 552 37,000  Level Los Angeles Center
12:09 33.6217 -115.8531 91° East 478 550 37,000  Level Los Angeles Center
12:10 33.6181 -115.6944 92° East 476 548 37,000  Level Los Angeles Center
12:12 33.6156 -115.5361 91° East 475 547 37,000 -120 Level Los Angeles Center
12:13 33.6097 -115.3772 92° East 476 548 36,800 -900 Descending Los Angeles Center
12:14 33.6064 -115.2183 91° East 477 549 35,200 -1,500 Descending Los Angeles Center
12:15 33.6031 -115.0611 91° East 474 545 33,700 -1,500 Descending Los Angeles Center
12:16 33.5989 -114.9064 92° East 465 535 32,200 -1,860 Descending Los Angeles Center
12:17 33.5875 -114.7214 94° East 464 534 29,900 -2,220 Descending Los Angeles Center
12:18 33.5569 -114.5678 103° East 471 542 27,700 -1,800 Descending Los Angeles Center
12:19 33.5278 -114.4192 103° East 461 531 26,300 -1,260 Descending Los Angeles Center
12:20 33.4981 -114.2769 104° East 444 511 25,100 -720 Descending Los Angeles Center
12:21 33.4711 -114.1378 103° East 432 497 24,900 -600 Descending Los Angeles Center
12:22 33.4461 -114.0047 103° East 427 491 23,900 -1,080 Descending Albuquerque Center
12:23 33.4464 -113.8317 90° East 433 498 22,800 -1,320 Descending Albuquerque Center
12:24 33.4589 -113.6897 84° East 433 498 21,200 -1,860 Descending Albuquerque Center
12:25 33.4728 -113.5478 83° East 430 495 19,000 -2,400 Descending Albuquerque Center
12:26 33.4856 -113.4133 83° East 416 479 16,400 -2,400 Descending Albuquerque Center
12:27 33.4981 -113.2861 83° East 396 456 14,100 -2,160 Descending Albuquerque Center
12:28 33.5103 -113.1614 83° East 382 440 12,000 -1,620 Descending Albuquerque Center
12:29 33.5211 -113.0450 84° East 364 419 10,900 -720 Descending Albuquerque Center
12:30 33.5358 -112.9386 81° East 337 388 10,600 -900 Descending Albuquerque Center
12:31 33.5842 -112.8547 55° Northeast 303 349 9,100 -1,860 Descending Albuquerque Center
12:32 33.6342 -112.7594 58° Northeast 283 326 6,900 -1,500 Descending Albuquerque Center
12:33 33.6664 -112.6972 58° Northeast 269 310 6,000 -540 Descending Albuquerque Center
12:34 33.7100 -112.6081 60° Northeast 260 299 5,900  Descending Albuquerque Center
12:35 33.7453 -112.5300 61° Northeast 263 303 6,000  Climbing Albuquerque Center
12:36 33.7806 -112.4492 62° Northeast 271 312 6,000  Level Albuquerque Center
12:37 33.7858 -112.3597 86° East 268 308 6,000  Level Albuquerque Center
12:38 33.7736 -112.2667 99° East 281 323 6,000  Level Albuquerque Center
12:39 33.7586 -112.1736 101° East 284 327 6,000 -540 Level Albuquerque Center
12:40 33.7425 -112.0694 101° East 269 310 5,000 -900 Descending Albuquerque Center
12:41 33.7267 -111.9908 104° East 248 285 4,200 -840 Descending Albuquerque Center
12:42 33.7044 -111.9189 110° East 235 270 3,300 -660 Descending Albuquerque Center
12:43 33.6758 -111.8664 123° Southeast 207 238 2,900 -780 Descending Albuquerque Center
12:44 33.6394 -111.8914 210° Southwest 183 211 1,800 -660 Descending Albuquerque Center
12:45 33.6128 -111.9250 226° Southwest 174 200 1,600 -240 Descending Albuquerque Center